GFSMA_700_spd_162.txt.gz
Wind_Speed
16 16 17 16 16 16 16 17 18 18 18 18 19 20 22 24 27 30 34 36 36 38 39 38 38 36 32 32 33 34 33 32 32 34 33 32 30 32 37 30 30 29 26
15 16 17 17 18 17 17 18 18 19 20 20 20 20 21 22 24 25 28 31 36 37 37 36 38 40 39 35 35 36 35 34 33 32 35 35 35 34 36 35 31 33 31
18 18 19 19 20 21 21 19 18 18 19 19 19 19 20 22 24 24 25 31 36 36 34 35 37 39 39 38 38 38 38 38 34 35 38 38 38 37 38 40 39 36 33
21 21 21 21 21 21 21 22 22 22 22 22 21 21 21 21 23 25 27 36 34 32 33 34 36 39 40 39 38 39 41 41 38 39 39 41 42 41 40 38 38 36 36
22 23 23 24 24 24 23 24 24 25 26 25 23 22 22 25 24 24 31 33 33 32 34 35 37 39 41 41 41 40 41 42 43 41 37 37 40 42 43 40 40 42 36
24 25 26 27 27 25 25 26 27 29 30 28 27 25 25 26 27 27 31 33 32 32 33 35 36 39 40 42 43 43 43 42 43 44 43 39 38 37 41 43 47 45 39
25 26 27 27 26 26 27 29 30 31 30 28 26 23 24 26 24 25 31 32 33 35 33 35 38 39 41 42 42 46 47 44 44 43 44 43 40 38 39 42 44 43 43
26 26 25 25 26 27 28 30 32 32 32 30 26 23 19 25 24 24 25 31 33 31 35 37 36 38 40 43 45 43 44 45 45 42 39 42 43 38 36 41 45 47 47
26 26 25 25 27 30 31 31 31 30 31 28 27 24 20 19 20 27 27 29 30 32 30 32 36 38 42 43 43 43 40 38 39 40 41 41 40 41 36 35 42 47 47
26 24 24 25 28 29 29 31 30 26 26 26 26 26 25 22 21 21 24 31 25 30 30 30 31 33 35 38 42 39 35 38 38 37 38 38 41 38 39 37 38 38 40
26 25 25 26 26 28 30 30 26 26 27 26 24 22 22 25 23 23 21 23 23 27 28 29 25 24 27 28 30 33 33 32 34 36 37 37 37 39 37 36 35 37 36
25 25 25 26 27 28 27 27 29 28 26 25 27 26 25 24 25 25 24 24 21 24 27 33 28 24 24 25 24 27 26 24 26 28 29 33 35 37 39 40 40 36 34
22 22 26 28 28 27 29 30 27 24 24 25 25 26 26 25 24 25 25 24 23 22 26 33 34 27 27 28 25 28 28 25 25 26 26 26 28 33 38 37 40 40 35
22 24 26 25 26 27 25 24 23 24 24 25 25 23 25 25 25 25 25 25 23 21 24 30 35 30 27 29 26 29 30 25 27 25 24 25 25 26 33 38 39 43 42
19 23 25 26 25 20 23 24 23 24 24 24 24 23 24 26 26 26 25 25 26 24 22 30 30 31 29 32 28 28 30 26 28 26 25 23 24 26 28 36 41 43 46
19 22 24 23 21 22 24 22 23 23 25 25 25 25 25 26 27 27 25 25 26 27 26 26 29 30 32 31 33 30 30 27 27 27 25 25 25 26 28 32 38 44 46
22 25 23 21 22 21 21 22 24 25 25 25 25 25 24 25 26 26 24 24 24 25 25 24 28 30 33 31 30 30 29 26 26 25 24 24 26 29 29 31 37 41 47
18 20 20 20 18 20 21 23 26 25 24 25 26 25 24 24 25 24 24 23 23 24 25 24 24 29 30 28 28 29 29 28 26 26 23 24 26 28 29 30 32 40 45
19 20 20 19 20 19 21 25 23 23 24 25 26 24 23 22 22 24 25 24 24 24 24 25 24 28 29 24 27 27 26 27 26 26 25 22 23 24 24 26 28 33 42
23 21 20 21 20 21 23 23 23 24 25 24 24 21 21 21 20 22 23 23 24 25 25 24 26 26 27 26 26 25 25 25 24 24 24 21 21 20 19 18 19 20 30
20 20 21 21 20 24 23 22 23 24 23 22 22 20 19 20 21 21 22 23 24 24 24 24 25 26 26 26 24 24 23 24 20 22 22 20 18 16 14 14 12 10 10
27 29 19 23 23 23 22 21 23 21 21 21 21 20 17 19 19 22 24 25 25 25 25 25 24 24 24 24 23 21 21 21 20 19 19 17 15 14 14 12 11 9 9
22 26 24 22 20 23 23 22 22 20 20 19 19 18 17 19 21 24 24 23 22 23 23 23 23 22 22 21 20 18 18 18 18 18 16 14 13 13 11 13 12 11 11
22 22 21 21 18 20 22 22 21 19 19 18 18 17 18 20 22 21 21 20 20 21 20 19 19 19 18 17 16 15 16 16 15 14 13 13 12 11 9 10 8 11 11
23 21 20 18 20 22 22 21 19 17 18 17 17 16 18 20 20 19 18 17 15 15 16 16 15 15 15 14 13 13 11 11 10 9 9 9 8 8 7 9 7 7 7
23 20 17 18 21 23 20 20 18 18 17 16 15 16 17 18 17 16 15 14 13 13 12 12 13 13 13 12 10 9 7 6 7 6 7 7 6 6 6 5 7 7 6

GFSMA_700_spd_165.txt.gz
Wind_Speed
13 14 14 13 15 16 16 16 17 18 18 19 19 19 18 19 20 21 26 31 31 32 35 35 35 35 34 33 32 32 33 32 31 29 30 30 31 31 30 32 36 33 29
13 15 15 15 15 16 17 19 20 21 21 20 20 20 20 21 21 22 27 29 31 31 31 32 33 34 35 35 34 33 34 35 32 35 33 34 34 33 33 33 36 34 30
15 16 18 18 18 18 19 20 20 20 20 19 19 19 19 20 20 23 30 30 28 27 29 31 31 32 33 35 35 35 36 37 37 36 36 34 34 36 35 36 36 34 33
17 18 20 20 21 21 22 22 22 22 22 23 22 22 22 21 22 26 28 30 29 29 30 30 31 31 32 34 36 36 38 38 39 37 38 36 34 36 38 38 38 39 33
22 22 22 22 23 23 24 23 24 25 25 25 25 25 25 25 27 28 29 31 31 30 29 30 31 32 33 34 36 36 38 39 39 38 38 37 36 34 35 38 42 40 40
27 26 25 24 25 26 27 27 28 29 27 27 27 30 27 25 26 28 29 32 31 31 31 33 33 33 34 37 38 38 37 39 40 40 39 38 37 37 37 37 38 42 42
29 27 27 26 26 28 28 27 29 30 30 30 28 28 24 22 24 26 29 31 31 29 31 33 33 35 37 38 37 38 38 38 38 40 42 42 39 39 40 38 36 35 42
31 29 30 28 28 29 28 28 29 30 30 27 24 22 21 21 23 25 27 29 29 29 29 33 34 34 36 37 37 36 37 38 36 37 38 39 39 38 38 39 39 36 37
32 30 29 29 29 28 27 28 29 29 28 26 23 21 20 21 24 25 26 27 28 29 28 31 33 35 36 38 35 35 37 37 39 37 37 37 37 37 38 36 38 40 36
30 30 31 30 29 28 27 28 26 28 27 25 24 20 16 15 17 21 26 25 25 28 29 28 30 32 34 34 36 35 31 32 34 35 34 35 36 36 38 38 37 40 39
30 31 31 30 28 28 27 26 26 25 24 24 23 21 22 19 18 19 20 22 25 28 33 30 29 29 30 30 30 31 28 27 27 26 28 30 33 36 37 40 39 39 42
31 30 31 29 27 26 25 26 24 24 25 23 20 20 21 23 23 23 22 21 19 26 31 35 35 33 26 26 27 30 28 27 26 24 24 24 27 32 36 38 39 40 42
30 31 29 25 23 24 26 27 29 23 21 21 20 23 21 21 23 24 24 24 20 25 29 33 36 37 32 25 24 27 26 26 28 26 23 23 23 25 30 36 40 40 44
30 28 24 23 21 20 20 23 22 20 21 19 21 23 23 22 22 23 23 23 23 24 28 30 35 35 36 29 26 27 24 26 27 26 25 24 23 22 23 29 38 42 42
29 26 22 18 16 19 22 21 20 21 20 21 21 21 21 22 22 23 24 26 25 23 25 30 32 35 38 35 29 28 26 27 27 25 24 24 22 21 24 26 30 38 42
31 27 23 21 19 19 21 20 21 20 21 22 21 18 20 23 24 24 26 28 28 28 26 25 29 35 37 35 30 30 28 28 27 24 23 22 21 19 18 23 31 36 38
29 28 24 17 18 19 21 21 19 20 21 22 18 18 22 24 25 26 28 27 25 26 27 25 27 33 33 32 29 30 28 26 27 25 23 22 20 20 18 18 23 32 38
30 24 18 15 18 19 19 20 18 20 19 18 18 21 24 25 26 27 25 23 22 24 24 24 26 30 29 28 28 28 27 26 25 25 23 22 21 20 19 18 20 24 31
24 21 19 17 17 17 19 19 19 19 18 17 20 22 24 24 23 22 20 20 21 23 23 24 26 26 24 24 26 26 26 25 25 25 23 19 19 18 20 21 22 23 26
24 18 20 18 18 17 18 19 20 19 17 18 21 22 22 22 20 20 19 19 21 22 23 24 24 23 24 25 24 24 24 24 23 24 24 18 16 16 17 18 20 23 24
23 26 27 17 16 17 21 21 19 17 18 21 21 19 21 20 18 19 19 20 22 24 24 23 25 25 25 25 24 22 23 22 21 22 21 20 14 15 14 15 16 18 20
20 19 22 21 14 19 22 19 17 19 22 23 21 16 18 16 18 18 20 22 22 21 22 22 23 23 23 23 21 20 21 20 20 19 18 19 15 13 13 12 14 15 14
16 25 25 21 19 18 20 19 18 20 20 22 21 16 15 16 18 20 21 22 20 21 21 21 21 21 20 19 18 18 17 16 16 16 16 15 17 12 11 11 11 12 12
18 21 23 20 19 18 19 17 19 20 19 20 17 15 16 18 18 19 20 18 18 19 21 20 19 18 18 16 14 14 14 13 12 12 12 12 14 12 9 10 9 9 9
21 20 17 18 19 17 16 19 20 19 19 18 15 15 16 17 18 19 17 15 15 16 16 16 15 15 14 14 11 11 11 9 9 8 8 8 10 8 7 7 7 7 9
26 21 18 17 16 15 17 18 21 19 18 16 17 15 15 17 17 17 15 13 13 12 13 13 13 14 12 12 11 10 9 7 6 5 5 4 5 4 2 5 6 6 6

GFSMA_700_spd_171.txt.gz
Wind_Speed
16 14 12 11 10 10 10 11 12 13 13 14 16 17 21 22 22 22 22 22 21 21 21 22 23 26 30 35 35 36 35 34 35 34 32 31 29 31 29 28 29 31 31
14 13 12 12 11 11 12 12 14 15 16 16 17 18 21 22 22 22 22 22 22 23 24 25 25 26 29 30 31 33 35 36 37 38 36 35 34 34 34 32 31 34 32
16 14 14 14 14 14 14 14 16 18 18 19 21 22 23 24 25 25 24 24 25 25 26 26 27 28 29 31 30 30 31 33 34 36 35 33 34 33 35 33 32 34 32
20 18 17 17 17 17 17 18 19 20 21 21 22 24 25 26 27 28 27 27 27 27 27 28 28 29 30 31 31 30 30 31 32 33 34 34 32 34 36 35 36 36 36
24 21 20 21 20 21 21 22 22 22 24 24 24 26 27 29 30 30 30 29 27 26 27 28 28 29 29 29 30 30 31 31 32 33 34 33 33 34 34 35 36 35 37
27 25 24 23 23 23 24 24 24 25 26 26 27 29 31 32 32 31 29 26 24 24 25 27 27 27 28 28 28 28 28 30 32 33 32 33 33 33 33 35 36 36 37
29 28 27 26 25 25 25 26 26 26 27 28 30 31 33 33 33 30 26 24 25 26 27 27 27 27 27 29 28 29 28 29 30 31 31 32 33 33 32 34 37 38 39
32 31 30 29 28 28 28 28 28 28 29 31 32 33 34 33 31 28 26 26 26 27 26 27 27 26 25 26 26 26 28 29 29 31 32 32 33 35 35 33 34 36 40
36 33 31 30 29 29 30 29 28 28 30 33 34 33 31 30 27 28 26 26 25 24 24 26 26 25 24 25 25 26 27 29 30 30 31 31 32 33 34 35 35 36 38
36 34 33 32 32 31 31 29 29 30 31 32 33 31 28 27 26 26 25 26 27 28 28 27 28 27 26 25 26 27 28 30 31 33 32 33 33 33 34 34 35 37 39
34 33 32 32 30 31 31 31 31 32 32 30 29 27 26 24 25 26 27 28 28 28 27 27 27 27 27 26 27 28 29 30 30 31 32 32 33 34 34 33 34 36 40
30 31 30 30 30 31 33 34 34 33 32 31 29 26 23 21 22 22 24 27 29 29 29 29 29 29 31 29 28 28 30 30 30 30 31 32 32 32 33 33 34 35 37
29 29 30 31 33 34 35 34 34 33 30 28 26 21 18 19 23 23 23 25 26 28 30 31 32 31 30 29 29 30 32 32 31 31 32 31 31 32 32 32 34 35 36
32 35 34 33 34 35 36 35 33 31 28 22 20 19 21 23 24 21 21 22 25 27 28 30 33 33 31 31 30 30 32 31 31 31 32 33 33 31 31 33 34 35 36
26 30 34 35 36 35 34 34 33 29 22 23 24 26 23 23 23 22 22 22 24 26 28 31 33 32 32 32 31 30 29 29 29 29 30 31 33 34 33 32 34 35 36
25 30 34 35 35 36 36 38 35 28 32 33 20 23 24 26 24 21 21 21 23 25 28 30 29 31 30 30 29 30 29 28 29 27 28 30 30 31 32 32 33 35 35
25 30 34 35 37 38 39 37 35 41 29 21 22 26 24 24 21 21 22 23 23 25 26 28 26 26 28 28 30 31 32 29 30 29 27 29 30 30 31 31 32 33 33
28 30 35 37 36 35 37 37 44 30 23 21 19 23 23 22 21 22 23 24 25 25 24 25 24 24 25 27 29 30 30 29 29 31 28 27 27 28 29 29 30 31 32
31 34 36 34 32 37 37 46 32 25 18 18 23 23 22 21 22 22 23 24 24 24 23 23 23 24 25 28 31 30 31 31 29 29 28 26 25 26 27 28 27 28 30
19 20 24 26 30 35 44 43 36 23 23 22 21 21 21 21 22 22 23 23 23 22 21 22 23 25 27 28 28 29 29 29 29 29 27 26 25 23 25 25 25 24 26
18 20 24 27 32 32 28 26 31 25 21 21 19 20 21 21 21 22 22 21 20 21 22 23 25 26 26 25 25 26 27 27 27 27 27 25 22 21 22 23 23 21 21
19 13 16 20 22 22 22 26 25 21 23 21 19 19 19 21 21 21 20 19 20 20 22 25 26 25 25 23 23 23 22 23 24 25 25 23 20 17 19 21 21 18 18
24 22 16 15 14 15 16 21 22 20 23 16 18 18 19 20 20 19 19 19 19 20 22 24 24 24 21 20 20 20 19 21 21 22 22 18 16 14 16 17 18 16 16
21 23 23 24 24 23 18 18 23 21 17 17 17 18 18 17 19 18 18 18 19 21 21 21 21 20 18 18 18 16 17 17 16 16 16 12 12 11 13 13 12 11 12
23 23 24 26 23 21 20 18 19 22 19 17 15 17 17 17 18 17 17 17 20 20 20 18 17 16 15 16 16 14 13 12 11 12 12 9 8 9 8 6 5 6 7
25 26 26 23 21 18 17 17 20 23 17 16 16 16 17 16 17 17 16 17 19 19 18 18 17 15 14 13 13 11 12 10 8 8 9 7 5 5 4 3 3 4 5

GFSMA_700_spd_174.txt.gz
Wind_Speed
18 18 16 13 11 9 9 8 8 9 10 12 13 14 15 15 16 17 17 18 18 19 19 20 21 22 22 23 25 28 30 32 32 31 31 30 29 29 29 30 30 26 27
18 16 15 13 11 10 9 9 10 10 11 13 14 14 15 16 17 18 19 21 21 21 22 23 25 26 24 23 24 24 27 29 30 30 31 32 34 35 34 35 34 35 33
18 18 17 16 14 13 12 12 13 14 14 15 15 16 17 18 20 21 22 22 22 22 23 24 25 27 27 26 26 26 28 30 31 32 31 29 28 31 34 36 37 36 34
20 21 21 19 18 16 16 16 17 17 17 17 18 20 21 21 22 24 25 25 25 25 25 26 27 27 28 28 28 29 28 30 30 29 31 31 30 28 29 33 36 37 36
22 23 24 23 21 20 20 20 20 20 20 20 21 22 23 24 25 27 29 29 28 26 25 25 25 25 26 26 27 26 27 28 29 29 29 29 30 30 29 30 34 36 36
26 26 27 27 26 25 23 22 23 23 22 23 24 24 24 26 27 29 31 30 28 25 24 23 24 25 26 26 26 26 25 26 26 27 27 28 29 30 30 30 31 34 35
31 31 31 31 30 28 27 25 25 25 25 25 25 24 26 27 29 32 31 30 27 25 24 24 24 25 25 24 25 25 26 25 25 25 27 27 28 29 29 29 30 32 34
35 34 33 32 31 29 27 27 27 27 27 27 26 26 28 30 30 32 31 31 28 26 25 24 23 22 20 20 20 22 23 24 25 25 24 25 27 28 30 30 29 30 32
36 36 35 34 32 30 28 28 28 28 29 29 28 28 29 32 33 33 31 29 28 27 26 24 23 23 22 22 23 24 26 27 27 29 29 30 30 30 31 30 30 32 32
31 35 35 33 33 31 29 27 28 28 29 29 29 29 31 32 32 31 30 28 27 28 28 27 25 24 23 23 23 24 25 27 28 29 29 30 30 32 33 33 34 34 35
29 31 32 34 33 31 31 31 28 29 30 31 31 32 32 30 29 28 28 28 28 28 28 27 26 25 24 23 23 24 25 27 29 29 30 31 31 32 32 34 34 35 37
26 28 30 31 31 33 30 29 31 29 31 33 33 31 29 29 29 27 25 25 27 30 29 28 27 25 23 23 24 25 26 26 29 30 31 31 31 32 33 33 33 35 36
23 24 26 29 29 29 31 31 31 32 32 32 33 29 28 28 27 23 25 32 30 30 29 29 27 25 24 24 25 26 28 30 30 31 32 33 33 33 33 33 33 33 35
18 22 25 28 30 31 32 32 33 34 34 34 30 29 26 24 23 29 29 27 28 27 30 30 28 27 25 26 28 28 30 31 31 30 31 31 32 33 34 35 34 34 33
19 20 23 29 32 32 34 35 35 35 32 33 32 29 26 27 34 27 25 25 26 27 31 30 28 27 26 28 28 28 30 30 30 29 29 29 31 31 31 33 33 34 34
21 22 23 30 34 35 36 36 34 33 35 35 29 29 34 39 26 25 24 24 26 26 28 28 28 28 28 28 28 28 27 28 29 29 27 28 30 31 31 32 33 33 33
22 22 24 29 32 35 38 35 31 33 33 32 34 39 43 27 25 24 23 22 22 24 25 26 26 27 28 28 27 28 27 28 30 30 26 25 29 31 31 31 31 32 32
21 23 24 26 29 32 35 36 36 35 31 35 36 44 29 23 22 21 22 23 22 23 23 24 24 25 25 25 26 27 28 28 30 32 29 28 28 30 31 31 30 31 32
16 17 20 24 28 31 33 33 33 27 32 33 40 29 22 23 24 23 21 21 21 21 22 23 23 23 22 23 25 26 27 28 30 31 30 28 28 29 29 30 30 30 31
11 12 13 13 15 17 20 22 24 31 37 36 35 25 22 23 23 21 21 20 20 20 21 21 20 21 22 23 24 25 25 26 29 30 28 27 28 28 27 29 29 29 30
11 10 13 14 13 15 20 24 29 32 33 34 38 28 22 23 22 20 19 20 20 19 20 19 20 21 21 22 22 23 25 26 28 28 26 26 25 25 25 26 28 28 25
18 18 18 20 20 18 17 17 20 23 26 29 26 24 24 18 18 18 17 18 19 19 19 20 21 21 20 20 21 22 23 24 26 25 25 23 20 20 22 24 24 24 18
19 18 18 19 19 20 22 24 21 19 20 31 25 23 19 17 17 17 17 17 18 18 19 18 18 19 20 19 19 20 21 22 22 21 20 18 17 18 20 20 18 17 12
19 19 20 21 23 24 24 26 23 19 18 22 22 21 17 17 17 17 16 16 17 18 17 17 17 17 17 18 18 18 18 19 18 17 16 14 14 13 15 14 11 10 5
20 21 23 25 26 24 21 20 20 19 17 20 23 21 18 16 15 15 14 15 17 17 16 16 16 17 18 18 17 17 16 15 14 13 12 11 10 9 8 7 5 3 2
24 25 26 26 27 22 19 19 18 18 16 17 19 19 15 12 13 15 15 15 16 15 15 15 15 16 17 17 16 15 13 11 12 10 10 8 6 5 4 4 4 3 3